Location: Unspecified
(40.7945°N, 0.0000°E)
Time: 13:08:52
(UTC+00:00)

Transit 2A - Visible Passes

Search period start: 23 January 2021 00:00
Search period end: 02 February 2021 00:00
Orbit: 598 x 960 km, 66.7° (Epoch: 22 January)

Date Brightness Start Highest point End Pass type
(mag) Time Alt. Az. Time Alt. Az. Time Alt. Az.
23 Jan 7.6 04:50:53 24° N 04:50:53 24° N 04:53:06 10° NNE visible
24 Jan 8.3 04:18:03 16° NNE 04:18:03 16° NNE 04:19:06 10° NNE visible
24 Jan 8.0 05:58:34 11° NNW 05:58:34 11° NNW 05:59:44 10° NNW visible
25 Jan 8.1 05:25:38 13° NNW 05:25:38 13° NNW 05:26:36 10° N visible
26 Jan 8.3 04:52:37 11° N 04:52:37 11° N 04:53:00 10° N visible
